KLM741 EHAM-TNCB

Flight info

Callsign KLM741
Flight time N/A
Altitude 34000
Route IDRID L980 MANGO DCT ENHAQ DCT GAJIT DCT GAPLI/M084F340 DCT BEDRA DCT 47N020W 43N030W/M084F360 38N040W 32N050W/M084F380 DCT FIVZE DCT OPAUL/N0483F400 L327 SCAPA SCAPA1N
Aircraft MD11/H-SDE1E2E3FGHIJ2J3J4J5M1RWXY/LB1D1

Departure

Time N/A
Airport Amsterdam Airport Schiphol (EHAM)

Arrival

Time 2026-04-13 02:44
Airport Flamingo International Airport (TNCB)
Time Latitude Longitude Altitude Speed Heading
2026-04-12 22:00 35.99743 -43.65941 36093 ft 430 kts 233°
2026-04-12 22:00 35.96223 -43.71979 36090 ft 430 kts 233°
2026-04-12 22:01 35.92717 -43.78000 36089 ft 431 kts 233°
2026-04-12 22:01 35.89238 -43.83980 36091 ft 432 kts 234°
2026-04-12 22:02 35.85740 -43.89999 36090 ft 432 kts 234°
2026-04-12 22:02 35.82238 -43.96028 36089 ft 432 kts 234°
2026-04-12 22:03 35.78752 -44.02034 36088 ft 431 kts 234°
2026-04-12 22:03 35.75264 -44.08048 36087 ft 431 kts 234°
2026-04-12 22:04 35.71773 -44.14073 36086 ft 431 kts 234°
2026-04-12 22:04 35.68320 -44.20040 36085 ft 431 kts 234°
2026-04-12 22:05 35.64835 -44.26064 36085 ft 431 kts 234°
2026-04-12 22:05 35.61349 -44.32097 36083 ft 431 kts 234°
2026-04-12 22:06 35.57822 -44.38027 36083 ft 432 kts 233°
2026-04-12 22:06 35.54261 -44.43959 36083 ft 432 kts 233°
2026-04-12 22:07 35.50711 -44.49900 36084 ft 432 kts 233°
2026-04-12 22:07 35.47156 -44.55859 36082 ft 432 kts 234°
2026-04-12 22:08 35.43595 -44.61834 36082 ft 432 kts 234°
2026-04-12 22:08 35.40054 -44.67777 36082 ft 433 kts 233°
2026-04-12 22:09 35.36522 -44.73710 36081 ft 433 kts 233°
2026-04-12 22:09 35.32983 -44.79661 36081 ft 433 kts 233°
2026-04-12 22:10 35.29429 -44.85640 36081 ft 434 kts 233°
2026-04-12 22:10 35.25892 -44.91597 36081 ft 433 kts 233°
2026-04-12 22:11 35.22344 -44.97577 36081 ft 434 kts 233°
2026-04-12 22:11 35.18813 -45.03535 36081 ft 433 kts 234°
2026-04-12 22:12 35.15269 -45.09517 36080 ft 433 kts 234°
2026-04-12 22:12 35.11736 -45.15485 36079 ft 433 kts 233°
2026-04-12 22:13 35.08141 -45.21352 36080 ft 433 kts 233°
2026-04-12 22:13 35.04529 -45.27240 36080 ft 433 kts 233°
2026-04-12 22:14 35.00925 -45.33136 36081 ft 433 kts 233°
2026-04-12 22:14 34.97339 -45.39010 36081 ft 434 kts 233°
2026-04-12 22:15 34.93740 -45.44909 36080 ft 434 kts 233°
2026-04-12 22:15 34.90138 -45.50818 36079 ft 434 kts 233°
2026-04-12 22:16 34.86548 -45.56711 36079 ft 434 kts 233°
2026-04-12 22:16 34.82951 -45.62620 36079 ft 434 kts 233°
2026-04-12 22:17 34.79356 -45.68529 36081 ft 434 kts 233°
2026-04-12 22:17 34.75751 -45.74459 36081 ft 435 kts 233°
2026-04-12 22:18 34.72181 -45.80339 36083 ft 435 kts 233°
2026-04-12 22:18 34.68573 -45.86285 36086 ft 436 kts 233°
2026-04-12 22:19 34.64967 -45.92233 36087 ft 436 kts 233°
2026-04-12 22:19 34.61354 -45.98172 36086 ft 437 kts 233°
2026-04-12 22:20 34.57622 -46.04102 36086 ft 437 kts 232°
2026-04-12 22:20 34.53915 -46.10019 36088 ft 438 kts 233°
2026-04-12 22:21 34.50174 -46.16008 36090 ft 438 kts 233°
2026-04-12 22:21 34.46509 -46.21876 36088 ft 437 kts 233°
2026-04-12 22:22 34.42840 -46.27755 36087 ft 437 kts 233°
2026-04-12 22:22 34.39128 -46.33707 36089 ft 438 kts 233°
2026-04-12 22:23 34.35424 -46.39652 36070 ft 438 kts 233°
2026-04-12 22:23 34.31749 -46.45555 36069 ft 438 kts 233°
2026-04-12 22:24 34.28083 -46.51449 36068 ft 438 kts 233°
2026-04-12 22:24 34.24433 -46.57320 36069 ft 438 kts 233°
2026-04-12 22:25 34.20766 -46.63224 36070 ft 438 kts 233°
2026-04-12 22:25 34.17136 -46.69071 36072 ft 437 kts 233°
2026-04-12 22:26 34.13488 -46.74955 36071 ft 436 kts 233°
2026-04-12 22:26 34.09814 -46.80779 36072 ft 436 kts 232°
2026-04-12 22:27 34.06121 -46.86522 36072 ft 435 kts 232°
2026-04-12 22:27 34.02409 -46.92326 36072 ft 434 kts 232°
2026-04-12 22:28 33.98738 -46.98073 36072 ft 433 kts 232°
2026-04-12 22:28 33.95062 -47.03833 36067 ft 433 kts 232°
2026-04-12 22:29 33.91394 -47.09582 36064 ft 435 kts 233°
2026-04-12 22:29 33.87711 -47.15361 36073 ft 438 kts 233°
2026-04-12 22:30 33.83982 -47.21216 36075 ft 438 kts 233°
2026-04-12 22:30 33.80300 -47.27000 36074 ft 437 kts 233°
2026-04-12 22:31 33.76601 -47.32819 36075 ft 436 kts 233°
2026-04-12 22:31 33.72938 -47.38583 36074 ft 436 kts 233°
2026-04-12 22:32 33.69257 -47.44379 36074 ft 435 kts 233°
2026-04-12 22:32 33.65557 -47.50211 36074 ft 435 kts 233°
2026-04-12 22:33 33.61898 -47.55981 36074 ft 434 kts 233°
2026-04-12 22:33 33.58164 -47.61713 36075 ft 434 kts 232°
2026-04-12 22:34 33.54446 -47.67383 36076 ft 433 kts 232°
2026-04-12 22:34 33.50720 -47.73088 36071 ft 433 kts 232°
2026-04-12 22:35 33.47012 -47.78772 36054 ft 433 kts 232°
2026-04-12 22:35 33.43312 -47.84446 36027 ft 433 kts 232°
2026-04-12 22:36 33.39620 -47.90110 35991 ft 433 kts 232°
2026-04-12 22:36 33.35897 -47.95828 35957 ft 433 kts 232°
2026-04-12 22:37 33.32201 -48.01506 35951 ft 434 kts 232°
2026-04-12 22:37 33.28497 -48.07202 35957 ft 434 kts 232°
2026-04-12 22:38 33.24789 -48.12909 35960 ft 434 kts 232°
2026-04-12 22:38 33.21081 -48.18618 35956 ft 433 kts 232°
2026-04-12 22:39 33.17386 -48.24312 35953 ft 433 kts 233°
2026-04-12 22:40 33.11865 -48.32827 35953 ft 434 kts 233°
2026-04-12 22:40 33.08129 -48.38506 35954 ft 435 kts 232°
2026-04-12 22:41 33.04349 -48.44140 35954 ft 435 kts 232°
2026-04-12 22:41 33.00581 -48.49787 35954 ft 435 kts 232°
2026-04-12 22:42 32.96810 -48.55445 35953 ft 436 kts 232°
2026-04-12 22:42 32.93034 -48.61113 35954 ft 437 kts 232°
2026-04-12 22:43 32.89262 -48.66779 35956 ft 437 kts 232°
2026-04-12 22:43 32.85485 -48.72454 35954 ft 437 kts 232°
2026-04-12 22:44 32.81708 -48.78138 35953 ft 437 kts 232°
2026-04-12 22:44 32.77931 -48.83824 35952 ft 437 kts 232°
2026-04-12 22:45 32.74171 -48.89485 35952 ft 438 kts 232°
2026-04-12 22:45 32.70388 -48.95187 35951 ft 438 kts 232°
2026-04-12 22:46 32.66616 -49.00878 35951 ft 438 kts 232°
2026-04-12 22:46 32.62840 -49.06577 35952 ft 438 kts 232°
2026-04-12 22:47 32.59091 -49.12239 35952 ft 438 kts 232°
2026-04-12 22:47 32.55250 -49.17891 35954 ft 438 kts 232°
2026-04-12 22:48 32.51429 -49.23484 35952 ft 438 kts 232°
2026-04-12 22:48 32.47606 -49.29100 35952 ft 439 kts 232°
2026-04-12 22:49 32.43756 -49.34759 35996 ft 439 kts 232°
2026-04-12 22:49 32.39936 -49.40379 36063 ft 439 kts 232°
2026-04-12 22:50 32.36101 -49.46022 36132 ft 439 kts 232°
2026-04-12 22:50 32.32275 -49.51656 36190 ft 438 kts 232°
2026-04-12 22:51 32.28451 -49.57292 36208 ft 439 kts 232°
2026-04-12 22:51 32.24651 -49.62895 36207 ft 438 kts 232°
2026-04-12 22:52 32.20834 -49.68529 36199 ft 439 kts 232°
2026-04-12 22:52 32.17024 -49.74155 36198 ft 439 kts 232°
2026-04-12 22:53 32.13206 -49.79797 36199 ft 439 kts 232°
2026-04-12 22:53 32.09407 -49.85413 36199 ft 439 kts 232°
2026-04-12 22:54 32.05583 -49.91058 36199 ft 440 kts 232°
2026-04-12 22:54 32.01729 -49.96660 36198 ft 440 kts 232°
2026-04-12 22:55 31.98257 -50.02599 36195 ft 441 kts 236°
2026-04-12 22:55 31.94659 -50.08503 36195 ft 441 kts 234°
2026-04-12 22:56 31.91022 -50.14334 36199 ft 440 kts 234°
2026-04-12 22:56 31.87410 -50.20103 36199 ft 440 kts 234°
2026-04-12 22:57 31.83772 -50.25912 36198 ft 440 kts 234°
2026-04-12 22:57 31.80160 -50.31681 36198 ft 440 kts 234°
2026-04-12 22:58 31.76519 -50.37500 36197 ft 440 kts 234°
2026-04-12 22:58 31.72885 -50.43312 36197 ft 440 kts 234°
2026-04-12 22:59 31.69260 -50.49114 36197 ft 440 kts 234°
2026-04-12 22:59 31.65660 -50.54881 36197 ft 440 kts 234°
2026-04-12 23:00 31.62037 -50.60687 36198 ft 440 kts 234°
2026-04-12 23:00 31.58419 -50.66491 36199 ft 440 kts 234°
2026-04-12 23:01 31.54806 -50.72289 36198 ft 440 kts 234°
2026-04-12 23:01 31.51185 -50.78106 36197 ft 440 kts 234°
2026-04-12 23:02 31.47569 -50.83910 36196 ft 440 kts 233°
2026-04-12 23:02 31.43882 -50.89645 36197 ft 441 kts 233°
2026-04-12 23:03 31.40207 -50.95377 36202 ft 441 kts 233°
2026-04-12 23:03 31.36532 -51.01123 36208 ft 440 kts 233°
2026-04-12 23:04 31.32868 -51.06856 36211 ft 440 kts 233°
2026-04-12 23:04 31.29182 -51.12628 36212 ft 440 kts 233°
2026-04-12 23:05 31.25513 -51.18375 36212 ft 440 kts 233°
2026-04-12 23:05 31.21861 -51.24102 36210 ft 440 kts 233°
2026-04-12 23:06 31.18197 -51.29849 36210 ft 441 kts 234°
2026-04-12 23:06 31.14547 -51.35580 36210 ft 440 kts 234°
2026-04-12 23:07 31.10907 -51.41299 36211 ft 440 kts 234°
2026-04-12 23:07 31.07249 -51.47051 36211 ft 440 kts 234°
2026-04-12 23:08 31.03603 -51.52786 36211 ft 440 kts 234°
2026-04-12 23:08 30.99965 -51.58521 36219 ft 442 kts 234°
2026-04-12 23:09 30.96256 -51.64296 36215 ft 443 kts 233°
2026-04-12 23:09 30.90635 -51.72857 36217 ft 442 kts 233°
2026-04-12 23:10 30.86885 -51.78589 36223 ft 443 kts 233°
2026-04-12 23:10 30.83159 -51.84293 36217 ft 443 kts 233°
2026-04-12 23:11 30.79420 -51.90073 36210 ft 445 kts 232°
2026-04-12 23:11 30.75671 -51.95831 36228 ft 447 kts 234°
2026-04-12 23:12 30.71909 -52.01613 36212 ft 446 kts 233°
2026-04-12 23:12 30.68196 -52.07315 36198 ft 442 kts 233°
2026-04-12 23:13 30.64485 -52.13027 36198 ft 442 kts 233°
2026-04-12 23:13 30.60776 -52.18738 36191 ft 441 kts 233°
2026-04-12 23:14 30.57080 -52.24460 36210 ft 444 kts 233°
2026-04-12 23:14 30.53363 -52.30190 36219 ft 445 kts 233°
2026-04-12 23:15 30.49648 -52.35904 36207 ft 447 kts 233°
2026-04-12 23:15 30.45879 -52.41628 36208 ft 446 kts 232°
2026-04-12 23:16 30.42054 -52.47374 36229 ft 449 kts 234°
2026-04-12 23:16 30.40182 -52.50203 36091 ft 443 kts 233°
2026-04-12 23:16 30.38267 -52.53050 36135 ft 447 kts 233°
2026-04-12 23:17 30.34481 -52.58777 36218 ft 448 kts 233°
2026-04-12 23:17 30.30660 -52.64514 36213 ft 449 kts 233°
2026-04-12 23:18 30.26851 -52.70238 36202 ft 450 kts 233°
2026-04-12 23:18 30.23031 -52.75996 36195 ft 449 kts 233°
2026-04-12 23:19 30.19250 -52.81700 36193 ft 448 kts 233°
2026-04-12 23:19 30.15466 -52.87412 36178 ft 448 kts 233°
2026-04-12 23:20 30.11651 -52.93173 36137 ft 448 kts 233°
2026-04-12 23:20 30.07878 -52.98875 36105 ft 447 kts 233°
2026-04-12 23:21 30.04086 -53.04611 36098 ft 447 kts 233°
2026-04-12 23:21 30.00323 -53.10306 36098 ft 447 kts 233°
2026-04-12 23:22 29.96550 -53.16000 36092 ft 447 kts 232°
2026-04-12 23:22 29.92703 -53.21643 36080 ft 447 kts 232°
2026-04-12 23:23 29.88865 -53.27298 36079 ft 449 kts 233°
2026-04-12 23:23 29.84993 -53.33014 36092 ft 451 kts 233°
2026-04-12 23:24 29.81156 -53.38684 36097 ft 451 kts 233°
2026-04-12 23:24 29.77277 -53.44418 36096 ft 451 kts 233°
2026-04-12 23:25 29.73436 -53.50098 36097 ft 450 kts 233°
2026-04-12 23:25 29.69602 -53.55772 36096 ft 450 kts 233°
2026-04-12 23:26 29.65756 -53.61469 36096 ft 450 kts 233°
2026-04-12 23:26 29.61928 -53.67139 36098 ft 450 kts 232°
2026-04-12 23:27 29.58102 -53.72812 36100 ft 450 kts 233°
2026-04-12 23:27 29.54264 -53.78508 36100 ft 450 kts 233°
2026-04-12 23:28 29.50436 -53.84190 36100 ft 449 kts 233°
2026-04-12 23:28 29.46630 -53.89844 36099 ft 449 kts 233°
2026-04-12 23:29 29.42756 -53.95461 36100 ft 450 kts 232°
2026-04-12 23:29 29.38864 -54.01084 36101 ft 450 kts 232°
2026-04-12 23:30 29.34980 -54.06712 36103 ft 450 kts 232°
2026-04-12 23:30 29.31116 -54.12317 36106 ft 450 kts 232°
2026-04-12 23:31 29.27853 -54.17051 36107 ft 449 kts 232°
2026-04-12 23:31 29.23986 -54.22663 36105 ft 449 kts 232°
2026-04-12 23:32 29.20120 -54.28278 36104 ft 449 kts 233°
2026-04-12 23:32 29.16242 -54.33915 36105 ft 449 kts 233°
2026-04-12 23:33 29.12386 -54.39525 36108 ft 449 kts 233°
2026-04-12 23:33 29.08511 -54.45163 36108 ft 449 kts 233°
2026-04-12 23:34 29.04671 -54.50755 36109 ft 450 kts 233°
2026-04-12 23:34 29.00793 -54.56404 36109 ft 450 kts 233°
2026-04-12 23:35 28.96928 -54.62040 36109 ft 450 kts 233°
2026-04-12 23:35 28.93047 -54.67648 36113 ft 451 kts 232°
2026-04-12 23:36 28.89110 -54.73221 36113 ft 451 kts 232°
2026-04-12 23:36 28.85199 -54.78786 36113 ft 451 kts 232°
2026-04-12 23:37 28.81283 -54.84364 36114 ft 451 kts 232°
2026-04-12 23:37 28.77363 -54.89949 36114 ft 450 kts 232°
2026-04-12 23:38 28.73446 -54.95533 36115 ft 451 kts 232°
2026-04-12 23:38 28.69535 -55.01113 36116 ft 451 kts 232°
2026-04-12 23:39 28.65613 -55.06711 36117 ft 451 kts 232°
2026-04-12 23:39 28.61727 -55.12261 36117 ft 451 kts 232°
2026-04-12 23:40 28.57828 -55.17831 36118 ft 450 kts 233°
2026-04-12 23:40 28.53933 -55.23402 36119 ft 450 kts 233°
2026-04-12 23:41 28.50029 -55.28988 36117 ft 450 kts 233°
2026-04-12 23:41 28.46119 -55.34586 36117 ft 451 kts 233°
2026-04-12 23:42 28.42218 -55.40161 36117 ft 451 kts 232°
2026-04-12 23:43 28.36282 -55.48431 36117 ft 451 kts 232°
2026-04-12 23:43 28.32326 -55.53966 36120 ft 451 kts 232°
2026-04-12 23:44 28.28371 -55.59502 36120 ft 451 kts 232°
2026-04-12 23:44 28.24435 -55.65014 36121 ft 450 kts 232°
2026-04-12 23:45 28.20493 -55.70538 36120 ft 451 kts 232°
2026-04-12 23:45 28.16561 -55.76051 36119 ft 451 kts 232°
2026-04-12 23:46 28.12610 -55.81593 36121 ft 451 kts 232°
2026-04-12 23:46 28.08678 -55.87112 36122 ft 451 kts 232°
2026-04-12 23:47 28.04743 -55.92639 36122 ft 451 kts 232°
2026-04-12 23:47 28.00796 -55.98185 36121 ft 451 kts 232°
2026-04-12 23:48 27.96869 -56.03707 36123 ft 451 kts 232°
2026-04-12 23:48 27.92947 -56.09225 36124 ft 451 kts 232°
2026-04-12 23:49 27.88983 -56.14764 36125 ft 451 kts 232°
2026-04-12 23:49 27.84984 -56.20234 36124 ft 452 kts 232°
2026-04-12 23:50 27.81009 -56.25699 36126 ft 451 kts 232°
2026-04-12 23:50 27.77035 -56.31166 36129 ft 451 kts 232°
2026-04-12 23:51 27.73045 -56.36659 36141 ft 451 kts 232°
2026-04-12 23:51 27.69070 -56.42136 36157 ft 451 kts 232°
2026-04-12 23:52 27.65088 -56.47623 36163 ft 450 kts 232°
2026-04-12 23:52 27.61119 -56.53096 36162 ft 449 kts 232°
2026-04-12 23:53 27.57153 -56.58568 36160 ft 449 kts 232°
2026-04-12 23:53 27.53200 -56.64025 36158 ft 449 kts 232°
2026-04-12 23:54 27.49249 -56.69481 36159 ft 449 kts 232°
2026-04-12 23:54 27.45310 -56.74925 36159 ft 448 kts 232°
2026-04-12 23:55 27.41392 -56.80343 36160 ft 448 kts 232°
2026-04-12 23:55 27.37446 -56.85795 36159 ft 447 kts 232°
2026-04-12 23:56 27.33455 -56.91175 36159 ft 447 kts 231°
2026-04-12 23:56 27.29487 -56.96535 36158 ft 447 kts 231°
2026-04-12 23:57 27.25490 -57.01943 36159 ft 447 kts 232°
2026-04-12 23:57 27.21531 -57.07304 36159 ft 447 kts 232°
2026-04-12 23:58 27.17547 -57.12700 36158 ft 447 kts 232°
2026-04-12 23:58 27.13578 -57.18080 36157 ft 447 kts 232°
2026-04-12 23:59 27.09633 -57.23428 36157 ft 447 kts 232°
2026-04-12 23:59 27.07654 -57.26114 36321 ft 444 kts 232°
2026-04-12 23:59 27.05710 -57.28753 36871 ft 437 kts 232°
2026-04-12 23:59 27.03763 -57.31397 37169 ft 438 kts 232°
2026-04-13 00:00 27.01817 -57.34040 37424 ft 439 kts 232°
2026-04-13 00:00 26.99879 -57.36672 37731 ft 438 kts 232°
2026-04-13 00:00 26.97939 -57.39307 38060 ft 438 kts 232°
2026-04-13 00:00 26.95990 -57.41954 38208 ft 439 kts 232°
2026-04-13 00:01 26.94072 -57.44560 38265 ft 438 kts 232°
2026-04-13 00:01 26.90198 -57.49826 38214 ft 433 kts 232°
2026-04-13 00:02 26.86387 -57.55011 38157 ft 431 kts 232°
2026-04-13 00:02 26.82556 -57.60163 38154 ft 431 kts 232°
2026-04-13 00:03 26.78691 -57.65290 38157 ft 431 kts 231°
2026-04-13 00:03 26.74814 -57.70450 38156 ft 431 kts 231°
2026-04-13 00:04 26.70971 -57.75564 38155 ft 430 kts 231°
2026-04-13 00:04 26.67127 -57.80685 38154 ft 430 kts 231°
2026-04-13 00:05 26.63261 -57.85838 38158 ft 431 kts 231°
2026-04-13 00:05 26.59428 -57.90951 38165 ft 431 kts 231°
2026-04-13 00:06 26.55562 -57.96109 38166 ft 432 kts 231°
2026-04-13 00:06 26.51701 -58.01263 38166 ft 433 kts 231°
2026-04-13 00:07 26.47840 -58.06419 38165 ft 433 kts 231°
2026-04-13 00:07 26.43994 -58.11558 38162 ft 434 kts 232°
2026-04-13 00:08 26.40115 -58.16745 38160 ft 434 kts 232°
2026-04-13 00:08 26.36270 -58.21890 38161 ft 434 kts 232°
2026-04-13 00:09 26.32400 -58.27068 38162 ft 434 kts 232°
2026-04-13 00:09 26.28493 -58.32216 38160 ft 435 kts 231°
2026-04-13 00:10 26.24576 -58.37330 38160 ft 435 kts 231°
2026-04-13 00:10 26.20659 -58.42464 38157 ft 435 kts 231°
2026-04-13 00:11 26.16746 -58.47597 38156 ft 434 kts 231°
2026-04-13 00:11 26.12832 -58.52731 38155 ft 434 kts 231°
2026-04-13 00:12 26.08927 -58.57854 38154 ft 434 kts 231°
2026-04-13 00:12 26.05047 -58.62949 38153 ft 434 kts 231°
2026-04-13 00:13 26.01142 -58.68077 38153 ft 434 kts 231°
2026-04-13 00:13 25.97251 -58.73193 38145 ft 433 kts 231°
2026-04-13 00:14 25.93368 -58.78296 38141 ft 433 kts 231°
2026-04-13 00:14 25.89476 -58.83415 38145 ft 435 kts 231°
2026-04-13 00:15 25.85566 -58.88562 38148 ft 436 kts 231°
2026-04-13 00:15 25.81652 -58.93717 38146 ft 435 kts 231°
2026-04-13 00:16 25.77760 -58.98843 38144 ft 434 kts 231°
2026-04-13 00:16 25.73813 -59.03933 38144 ft 435 kts 231°
2026-04-13 00:17 25.69891 -59.08988 38142 ft 434 kts 231°
2026-04-13 00:17 25.65956 -59.14066 38142 ft 433 kts 231°
2026-04-13 00:18 25.62037 -59.19126 38143 ft 432 kts 231°
2026-04-13 00:18 25.58777 -59.23337 38142 ft 432 kts 231°
2026-04-13 00:19 25.54199 -59.29254 38142 ft 432 kts 231°
2026-04-13 00:19 25.50300 -59.34296 38141 ft 432 kts 231°
2026-04-13 00:20 25.46393 -59.39351 38141 ft 432 kts 231°
2026-04-13 00:20 25.42499 -59.44391 38140 ft 432 kts 231°
2026-04-13 00:21 25.38594 -59.49446 38137 ft 431 kts 231°
2026-04-13 00:21 25.34716 -59.54469 38137 ft 431 kts 231°
2026-04-13 00:22 25.30818 -59.59521 38134 ft 430 kts 231°
2026-04-13 00:22 25.26934 -59.64557 38128 ft 431 kts 231°
2026-04-13 00:23 25.23061 -59.69575 38125 ft 431 kts 231°
2026-04-13 00:23 25.19134 -59.74591 38124 ft 431 kts 231°
2026-04-13 00:24 25.15217 -59.79600 38123 ft 431 kts 231°
2026-04-13 00:24 25.11288 -59.84628 38122 ft 431 kts 231°
2026-04-13 00:25 25.07394 -59.89614 38120 ft 432 kts 231°
2026-04-13 00:25 25.03457 -59.94658 38120 ft 432 kts 231°
2026-04-13 00:26 24.99803 -59.99879 38117 ft 433 kts 234°
2026-04-13 00:26 24.95971 -60.05048 38107 ft 434 kts 231°
2026-04-13 00:27 24.92015 -60.10070 38107 ft 434 kts 231°
2026-04-13 00:27 24.88048 -60.15073 38129 ft 432 kts 231°
2026-04-13 00:28 24.84105 -60.20043 38139 ft 432 kts 231°
2026-04-13 00:28 24.80151 -60.25026 38137 ft 432 kts 231°
2026-04-13 00:29 24.76187 -60.30022 38133 ft 433 kts 231°
2026-04-13 00:29 24.72222 -60.35022 38131 ft 433 kts 231°
2026-04-13 00:30 24.68269 -60.40009 38129 ft 433 kts 231°
2026-04-13 00:30 24.64317 -60.44997 38128 ft 433 kts 231°
2026-04-13 00:31 24.60352 -60.50003 38127 ft 433 kts 232°
2026-04-13 00:31 24.56388 -60.55010 38126 ft 434 kts 232°
2026-04-13 00:32 24.52436 -60.60004 38125 ft 434 kts 232°
2026-04-13 00:32 24.48488 -60.64993 38124 ft 434 kts 232°
2026-04-13 00:33 24.44530 -60.69999 38122 ft 434 kts 231°
2026-04-13 00:33 24.40574 -60.74999 38120 ft 433 kts 231°
2026-04-13 00:34 24.36577 -60.79948 38119 ft 433 kts 231°
2026-04-13 00:34 24.32590 -60.84891 38118 ft 433 kts 231°
2026-04-13 00:35 24.28586 -60.89862 38116 ft 433 kts 231°
2026-04-13 00:35 24.24618 -60.94809 38078 ft 434 kts 232°
2026-04-13 00:36 24.20603 -60.99775 38080 ft 436 kts 230°
2026-04-13 00:36 24.16594 -61.04744 38047 ft 435 kts 232°
2026-04-13 00:37 24.10567 -61.12242 38079 ft 439 kts 231°
2026-04-13 00:37 24.06511 -61.17269 38082 ft 439 kts 232°
2026-04-13 00:38 24.02501 -61.22286 38098 ft 438 kts 232°
2026-04-13 00:38 23.98479 -61.27303 38101 ft 437 kts 232°
2026-04-13 00:39 23.94449 -61.32327 38099 ft 437 kts 232°
2026-04-13 00:39 23.90461 -61.37296 38086 ft 437 kts 232°
2026-04-13 00:40 23.86460 -61.42283 38082 ft 436 kts 233°
2026-04-13 00:40 23.82425 -61.47234 38097 ft 436 kts 232°
2026-04-13 00:41 23.79049 -61.51360 38098 ft 435 kts 232°
2026-04-13 00:41 23.74367 -61.57090 38097 ft 435 kts 232°
2026-04-13 00:42 23.70343 -61.62020 38094 ft 435 kts 232°
2026-04-13 00:42 23.66313 -61.66958 38094 ft 435 kts 232°
2026-04-13 00:43 23.62286 -61.71894 38088 ft 435 kts 232°
2026-04-13 00:43 23.58252 -61.76842 38086 ft 435 kts 232°
2026-04-13 00:44 23.52249 -61.84206 38084 ft 434 kts 232°
2026-04-13 00:45 23.48216 -61.89157 38081 ft 434 kts 232°
2026-04-13 00:45 23.44230 -61.94052 38077 ft 434 kts 232°
2026-04-13 00:46 23.40204 -61.98998 38075 ft 434 kts 232°
2026-04-13 00:46 23.36207 -62.03910 38071 ft 433 kts 233°
2026-04-13 00:47 23.32209 -62.08825 38068 ft 433 kts 233°
2026-04-13 00:47 23.28203 -62.13698 38070 ft 432 kts 232°
2026-04-13 00:48 23.24166 -62.18561 38069 ft 432 kts 232°
2026-04-13 00:48 23.20163 -62.23394 38068 ft 432 kts 232°
2026-04-13 00:49 23.16141 -62.28252 38067 ft 431 kts 233°
2026-04-13 00:49 23.12130 -62.33100 38065 ft 431 kts 233°
2026-04-13 00:50 23.08130 -62.37937 38064 ft 431 kts 233°
2026-04-13 00:50 23.04101 -62.42811 38063 ft 431 kts 233°
2026-04-13 00:51 23.00104 -62.47649 38063 ft 430 kts 233°
2026-04-13 00:51 22.96113 -62.52480 38062 ft 429 kts 233°
2026-04-13 00:52 22.92142 -62.57289 38060 ft 429 kts 233°
2026-04-13 00:52 22.88148 -62.62128 38059 ft 429 kts 233°
2026-04-13 00:53 22.84158 -62.66962 38057 ft 430 kts 233°
2026-04-13 00:53 22.80178 -62.71787 38050 ft 430 kts 233°
2026-04-13 00:54 22.76184 -62.76632 38051 ft 429 kts 233°
2026-04-13 00:54 22.72199 -62.81405 38055 ft 429 kts 233°
2026-04-13 00:55 22.68184 -62.86182 38055 ft 429 kts 233°
2026-04-13 00:55 22.64168 -62.90968 38055 ft 429 kts 233°
2026-04-13 00:56 22.60168 -62.95737 38058 ft 429 kts 233°
2026-04-13 00:56 22.56146 -63.00535 38061 ft 428 kts 233°
2026-04-13 00:57 22.52149 -63.05306 38061 ft 428 kts 233°
2026-04-13 00:57 22.48152 -63.10077 38059 ft 427 kts 233°
2026-04-13 00:58 22.44166 -63.14839 38054 ft 427 kts 233°
2026-04-13 00:58 22.40168 -63.19613 38050 ft 427 kts 233°
2026-04-13 00:59 22.36191 -63.24368 38047 ft 427 kts 233°
2026-04-13 00:59 22.32212 -63.29124 38046 ft 426 kts 233°
2026-04-13 01:00 22.28238 -63.33878 38046 ft 426 kts 233°
2026-04-13 01:00 22.24270 -63.38625 38045 ft 426 kts 233°
2026-04-13 01:01 22.20324 -63.43347 38045 ft 425 kts 233°
2026-04-13 01:01 22.16333 -63.48078 38043 ft 425 kts 233°
2026-04-13 01:02 22.12344 -63.52786 38043 ft 425 kts 233°
2026-04-13 01:02 22.08349 -63.57506 38044 ft 424 kts 233°
2026-04-13 01:03 22.04379 -63.62198 38048 ft 424 kts 233°
2026-04-13 01:03 22.00395 -63.66911 38054 ft 425 kts 233°
2026-04-13 01:04 21.96431 -63.71598 38051 ft 424 kts 233°
2026-04-13 01:04 21.92450 -63.76310 38049 ft 424 kts 233°
2026-04-13 01:05 21.88472 -63.81004 38040 ft 424 kts 232°
2026-04-13 01:05 21.84101 -63.85323 38031 ft 432 kts 224°
2026-04-13 01:06 21.78982 -63.88850 38031 ft 440 kts 218°
2026-04-13 01:06 21.73698 -63.92187 38031 ft 438 kts 218°
2026-04-13 01:07 21.68435 -63.95503 38032 ft 438 kts 218°
2026-04-13 01:07 21.63162 -63.98822 38033 ft 438 kts 218°
2026-04-13 01:08 21.57903 -64.02132 38032 ft 438 kts 218°
2026-04-13 01:08 21.52605 -64.05466 38032 ft 438 kts 218°
2026-04-13 01:09 21.47351 -64.08773 38033 ft 438 kts 218°
2026-04-13 01:09 21.42086 -64.12086 38032 ft 438 kts 218°
2026-04-13 01:10 21.36813 -64.15408 38032 ft 438 kts 218°
2026-04-13 01:10 21.31546 -64.18723 38033 ft 439 kts 218°
2026-04-13 01:11 21.26253 -64.22056 38033 ft 439 kts 218°
2026-04-13 01:11 21.20988 -64.25372 38032 ft 439 kts 218°
2026-04-13 01:12 21.15714 -64.28693 38032 ft 440 kts 218°
2026-04-13 01:12 21.10430 -64.32022 38033 ft 440 kts 218°
2026-04-13 01:13 21.05132 -64.35338 38033 ft 440 kts 218°
2026-04-13 01:13 20.99816 -64.38639 38038 ft 440 kts 218°
2026-04-13 01:13 20.97159 -64.40289 38308 ft 437 kts 218°
2026-04-13 01:14 20.94571 -64.41896 38708 ft 433 kts 218°
2026-04-13 01:14 20.91938 -64.43534 38877 ft 435 kts 218°
2026-04-13 01:14 20.89328 -64.45155 39121 ft 436 kts 219°
2026-04-13 01:14 20.86693 -64.46793 39395 ft 436 kts 219°
2026-04-13 01:15 20.84067 -64.48428 39749 ft 435 kts 219°
2026-04-13 01:15 20.81440 -64.50067 40021 ft 434 kts 219°
2026-04-13 01:15 20.78825 -64.51696 40036 ft 434 kts 219°
2026-04-13 01:16 20.73627 -64.54934 40068 ft 435 kts 218°
2026-04-13 01:16 20.68354 -64.58218 40042 ft 437 kts 218°
2026-04-13 01:17 20.63077 -64.61500 40042 ft 438 kts 218°
2026-04-13 01:17 20.57819 -64.64772 40047 ft 437 kts 218°
2026-04-13 01:18 20.52587 -64.68029 40049 ft 437 kts 218°
2026-04-13 01:18 20.47307 -64.71317 40051 ft 437 kts 218°
2026-04-13 01:19 20.42028 -64.74606 40051 ft 438 kts 218°
2026-04-13 01:19 20.36779 -64.77875 40053 ft 437 kts 218°
2026-04-13 01:20 20.31495 -64.81130 40052 ft 438 kts 218°
2026-04-13 01:20 20.26211 -64.84377 40052 ft 438 kts 218°
2026-04-13 01:21 20.20931 -64.87625 40052 ft 438 kts 218°
2026-04-13 01:21 20.15658 -64.90871 40051 ft 438 kts 218°
2026-04-13 01:22 20.10357 -64.94133 40052 ft 437 kts 218°
2026-04-13 01:22 20.05089 -64.97375 40051 ft 437 kts 218°
2026-04-13 01:23 19.99835 -65.00610 40049 ft 437 kts 218°
2026-04-13 01:23 19.94569 -65.03853 40053 ft 437 kts 218°
2026-04-13 01:24 19.89297 -65.07099 40059 ft 437 kts 218°
2026-04-13 01:24 19.84018 -65.10351 40058 ft 438 kts 218°
2026-04-13 01:25 19.78743 -65.13599 40053 ft 438 kts 218°
2026-04-13 01:25 19.73471 -65.16846 40050 ft 438 kts 218°
2026-04-13 01:26 19.68182 -65.20104 40049 ft 438 kts 218°
2026-04-13 01:26 19.62900 -65.23351 40046 ft 438 kts 217°
2026-04-13 01:27 19.57595 -65.26576 40046 ft 438 kts 217°
2026-04-13 01:27 19.52305 -65.29796 40046 ft 438 kts 218°
2026-04-13 01:28 19.47015 -65.33017 40045 ft 438 kts 217°
2026-04-13 01:28 19.41697 -65.36256 40046 ft 439 kts 217°
2026-04-13 01:29 19.36387 -65.39490 40045 ft 439 kts 217°
2026-04-13 01:29 19.31089 -65.42717 40045 ft 439 kts 218°
2026-04-13 01:30 19.25821 -65.45926 40044 ft 439 kts 218°
2026-04-13 01:30 19.20511 -65.49161 40045 ft 439 kts 218°
2026-04-13 01:31 19.15216 -65.52388 40043 ft 439 kts 218°
2026-04-13 01:31 19.09899 -65.55629 40044 ft 439 kts 218°
2026-04-13 01:32 19.04624 -65.58844 40044 ft 438 kts 218°
2026-04-13 01:32 18.99324 -65.62074 40043 ft 438 kts 218°
2026-04-13 01:33 18.94049 -65.65290 40045 ft 438 kts 217°
2026-04-13 01:33 18.88755 -65.68496 40047 ft 439 kts 217°
2026-04-13 01:34 18.83409 -65.71715 40049 ft 439 kts 217°
2026-04-13 01:34 18.78097 -65.74916 40051 ft 439 kts 217°
2026-04-13 01:35 18.72784 -65.78119 40052 ft 439 kts 217°
2026-04-13 01:35 18.67468 -65.81324 40051 ft 438 kts 217°
2026-04-13 01:36 18.62155 -65.84528 40050 ft 439 kts 217°
2026-04-13 01:36 18.56837 -65.87735 40051 ft 439 kts 217°
2026-04-13 01:37 18.51555 -65.90921 40050 ft 439 kts 217°
2026-04-13 01:37 18.46248 -65.94122 40050 ft 438 kts 217°
2026-04-13 01:38 18.40936 -65.97327 40054 ft 438 kts 217°
2026-04-13 01:38 18.35636 -66.00524 40054 ft 438 kts 217°
2026-04-13 01:39 18.30338 -66.03721 40062 ft 438 kts 217°
2026-04-13 01:39 18.25048 -66.06913 40071 ft 438 kts 217°
2026-04-13 01:40 18.19733 -66.10121 40073 ft 438 kts 217°
2026-04-13 01:40 18.14432 -66.13284 40059 ft 438 kts 216°
2026-04-13 01:41 18.09114 -66.16457 40028 ft 438 kts 216°
2026-04-13 01:41 18.03804 -66.19626 39980 ft 438 kts 216°
2026-04-13 01:42 17.98500 -66.22794 39918 ft 438 kts 216°
2026-04-13 01:42 17.93187 -66.25966 39878 ft 438 kts 216°
2026-04-13 01:43 17.82559 -66.32315 39940 ft 438 kts 217°
2026-04-13 01:44 17.77273 -66.35473 40116 ft 438 kts 217°
2026-04-13 01:44 17.71962 -66.38647 40202 ft 439 kts 216°
2026-04-13 01:45 17.66618 -66.41839 40110 ft 439 kts 216°
2026-04-13 01:45 17.61336 -66.44994 40004 ft 439 kts 216°
2026-04-13 01:46 17.56007 -66.48179 40009 ft 439 kts 217°
2026-04-13 01:46 17.50680 -66.51363 40021 ft 440 kts 217°
2026-04-13 01:47 17.45328 -66.54551 40026 ft 440 kts 216°
2026-04-13 01:47 17.40005 -66.57695 40027 ft 440 kts 216°
2026-04-13 01:48 17.34644 -66.60866 40028 ft 441 kts 216°
2026-04-13 01:48 17.29302 -66.64027 40028 ft 441 kts 216°
2026-04-13 01:49 17.23943 -66.67197 40029 ft 442 kts 216°
2026-04-13 01:49 17.18577 -66.70372 40030 ft 442 kts 216°
2026-04-13 01:50 17.13202 -66.73553 40033 ft 442 kts 216°
2026-04-13 01:50 17.07820 -66.76738 40032 ft 443 kts 216°
2026-04-13 01:51 17.02463 -66.79909 40033 ft 443 kts 216°
2026-04-13 01:51 16.97082 -66.83095 40033 ft 444 kts 216°
2026-04-13 01:52 16.91698 -66.86282 40033 ft 444 kts 216°
2026-04-13 01:52 16.86299 -66.89478 40033 ft 444 kts 216°
2026-04-13 01:53 16.80925 -66.92660 40032 ft 444 kts 216°
2026-04-13 01:53 16.75533 -66.95853 40032 ft 445 kts 216°
2026-04-13 01:54 16.70123 -66.99028 40031 ft 446 kts 216°
2026-04-13 01:54 16.64680 -67.02217 40033 ft 446 kts 216°
2026-04-13 01:55 16.59283 -67.05383 40033 ft 446 kts 216°
2026-04-13 01:55 16.53853 -67.08566 40031 ft 446 kts 216°
2026-04-13 01:56 16.48406 -67.11761 40030 ft 446 kts 216°
2026-04-13 01:56 16.42997 -67.14933 40029 ft 446 kts 216°
2026-04-13 01:57 16.37576 -67.18114 40030 ft 447 kts 216°
2026-04-13 01:57 16.32141 -67.21303 40025 ft 447 kts 215°
2026-04-13 01:58 16.26716 -67.24486 40020 ft 447 kts 215°
2026-04-13 01:58 16.21283 -67.27673 40017 ft 447 kts 215°
2026-04-13 01:59 16.15833 -67.30872 40013 ft 447 kts 215°
2026-04-13 01:59 16.10427 -67.34044 40010 ft 447 kts 215°
2026-04-13 02:00 16.05000 -67.37229 40009 ft 447 kts 215°
2026-04-13 02:00 15.99553 -67.40417 40006 ft 447 kts 215°
2026-04-13 02:01 15.94117 -67.43587 40005 ft 447 kts 215°
2026-04-13 02:01 15.88684 -67.46759 40007 ft 448 kts 215°
2026-04-13 02:02 15.83118 -67.49747 40005 ft 453 kts 210°
2026-04-13 02:02 15.77101 -67.51973 40002 ft 461 kts 203°
2026-04-13 02:03 15.70962 -67.53898 39996 ft 461 kts 203°
2026-04-13 02:03 15.64809 -67.55823 39996 ft 460 kts 203°
2026-04-13 02:04 15.58642 -67.57757 39996 ft 460 kts 203°
2026-04-13 02:04 15.52490 -67.59683 39995 ft 460 kts 203°
2026-04-13 02:05 15.46348 -67.61607 39993 ft 460 kts 203°
2026-04-13 02:05 15.40213 -67.63527 39992 ft 460 kts 203°
2026-04-13 02:06 15.34076 -67.65448 39992 ft 460 kts 202°
2026-04-13 02:06 15.27943 -67.67368 39989 ft 460 kts 202°
2026-04-13 02:07 15.21799 -67.69292 39988 ft 460 kts 202°
2026-04-13 02:07 15.15668 -67.71212 39985 ft 460 kts 202°
2026-04-13 02:08 15.09512 -67.73138 39985 ft 460 kts 202°
2026-04-13 02:08 15.03379 -67.75059 39983 ft 460 kts 202°
2026-04-13 02:09 14.97223 -67.76987 39981 ft 460 kts 202°
2026-04-13 02:09 14.91073 -67.78896 39978 ft 460 kts 202°
2026-04-13 02:10 14.84932 -67.80802 39976 ft 460 kts 202°
2026-04-13 02:10 14.78802 -67.82706 39976 ft 460 kts 202°
2026-04-13 02:11 14.72635 -67.84621 39975 ft 460 kts 202°
2026-04-13 02:11 14.66471 -67.86536 39971 ft 461 kts 202°
2026-04-13 02:12 14.60323 -67.88445 39970 ft 461 kts 201°
2026-04-13 02:12 14.54725 -67.90185 39966 ft 460 kts 201°
2026-04-13 02:13 14.48572 -67.92096 39965 ft 460 kts 201°
2026-04-13 02:13 14.42419 -67.94007 39966 ft 461 kts 201°
2026-04-13 02:14 14.36272 -67.95917 39963 ft 461 kts 201°
2026-04-13 02:14 14.30111 -67.97830 39959 ft 461 kts 201°
2026-04-13 02:15 14.23978 -67.99735 39958 ft 461 kts 201°
2026-04-13 02:15 14.17787 -68.01659 39956 ft 461 kts 201°
2026-04-13 02:16 14.11656 -68.03549 39953 ft 461 kts 201°
2026-04-13 02:16 14.05487 -68.05450 39951 ft 461 kts 201°
2026-04-13 02:17 13.99318 -68.07352 39813 ft 463 kts 201°
2026-04-13 02:17 13.96193 -68.08315 39166 ft 465 kts 201°
2026-04-13 02:17 13.93090 -68.09271 38546 ft 464 kts 201°
2026-04-13 02:17 13.90013 -68.10220 37896 ft 463 kts 201°
2026-04-13 02:18 13.86939 -68.11166 37293 ft 459 kts 201°
2026-04-13 02:18 13.83873 -68.12110 36510 ft 457 kts 201°
2026-04-13 02:18 13.80814 -68.13054 35435 ft 460 kts 201°
2026-04-13 02:18 13.77774 -68.13993 34348 ft 462 kts 201°
2026-04-13 02:19 13.74690 -68.14942 33360 ft 455 kts 201°
2026-04-13 02:19 13.71646 -68.15879 32321 ft 450 kts 201°
2026-04-13 02:19 13.68642 -68.16808 31684 ft 453 kts 201°
2026-04-13 02:19 13.65589 -68.17752 30927 ft 461 kts 201°
2026-04-13 02:20 13.62503 -68.18707 30063 ft 469 kts 201°
2026-04-13 02:20 13.59318 -68.19690 29202 ft 477 kts 201°
2026-04-13 02:20 13.56129 -68.20675 28396 ft 485 kts 201°
2026-04-13 02:20 13.52864 -68.21682 27604 ft 492 kts 201°
2026-04-13 02:21 13.49550 -68.22704 26931 ft 502 kts 200°
2026-04-13 02:21 13.45967 -68.23807 26091 ft 509 kts 200°
2026-04-13 02:21 13.42477 -68.24881 25305 ft 507 kts 200°
2026-04-13 02:21 13.39084 -68.25923 24409 ft 501 kts 200°
2026-04-13 02:22 13.35738 -68.26950 23222 ft 490 kts 200°
2026-04-13 02:22 13.32516 -68.27935 22046 ft 476 kts 200°
2026-04-13 02:22 13.29376 -68.28896 21270 ft 467 kts 200°
2026-04-13 02:22 13.26278 -68.29845 20483 ft 460 kts 200°
2026-04-13 02:23 13.23205 -68.30788 19702 ft 454 kts 200°
2026-04-13 02:23 13.20199 -68.31709 18945 ft 447 kts 200°
2026-04-13 02:23 13.17226 -68.32622 18043 ft 438 kts 199°
2026-04-13 02:23 13.14353 -68.33503 16548 ft 430 kts 199°
2026-04-13 02:24 13.11480 -68.34383 15060 ft 421 kts 199°
2026-04-13 02:24 13.08700 -68.35237 13573 ft 412 kts 199°
2026-04-13 02:24 13.05945 -68.36083 12236 ft 415 kts 198°
2026-04-13 02:24 13.03170 -68.36934 11046 ft 419 kts 198°
2026-04-13 02:25 13.00384 -68.37787 9697 ft 407 kts 198°
2026-04-13 02:25 12.97768 -68.38586 8601 ft 377 kts 197°
2026-04-13 02:25 12.95380 -68.39314 8337 ft 337 kts 197°
2026-04-13 02:25 12.93151 -68.39996 8134 ft 323 kts 197°
2026-04-13 02:26 12.91042 -68.40644 7896 ft 312 kts 197°
2026-04-13 02:26 12.88987 -68.41276 7886 ft 294 kts 196°
2026-04-13 02:26 12.87055 -68.41870 7890 ft 277 kts 196°
2026-04-13 02:26 12.85248 -68.42424 7906 ft 265 kts 195°
2026-04-13 02:27 12.83502 -68.42960 7914 ft 255 kts 195°
2026-04-13 02:27 12.81837 -68.43468 7913 ft 247 kts 194°
2026-04-13 02:27 12.80170 -68.43974 7919 ft 245 kts 194°
2026-04-13 02:27 12.78546 -68.44469 7917 ft 245 kts 194°
2026-04-13 02:28 12.76895 -68.44973 7918 ft 246 kts 195°
2026-04-13 02:28 12.75239 -68.45480 7916 ft 246 kts 195°
2026-04-13 02:28 12.73591 -68.45985 7895 ft 246 kts 195°
2026-04-13 02:28 12.71940 -68.46491 7650 ft 244 kts 195°
2026-04-13 02:29 12.70329 -68.46986 7632 ft 243 kts 195°
2026-04-13 02:29 12.68686 -68.47488 7619 ft 244 kts 195°
2026-04-13 02:29 12.67047 -68.47966 7615 ft 244 kts 191°
2026-04-13 02:29 12.65353 -68.48229 7615 ft 243 kts 180°
2026-04-13 02:30 12.63664 -68.48206 7619 ft 242 kts 176°
2026-04-13 02:30 12.61986 -68.48129 7332 ft 239 kts 176°
2026-04-13 02:30 12.60300 -68.48064 7130 ft 241 kts 176°
2026-04-13 02:30 12.58633 -68.48010 6905 ft 240 kts 176°
2026-04-13 02:31 12.56963 -68.47965 6697 ft 238 kts 177°
2026-04-13 02:31 12.55304 -68.47926 6502 ft 236 kts 177°
2026-04-13 02:31 12.53649 -68.47882 6283 ft 237 kts 176°
2026-04-13 02:31 12.52002 -68.47837 6093 ft 235 kts 176°
2026-04-13 02:32 12.50353 -68.47796 5943 ft 233 kts 176°
2026-04-13 02:32 12.48750 -68.47756 5780 ft 225 kts 176°
2026-04-13 02:32 12.47203 -68.47720 5644 ft 214 kts 176°
2026-04-13 02:32 12.45742 -68.47684 5545 ft 204 kts 176°
2026-04-13 02:33 12.44348 -68.47649 5468 ft 197 kts 175°
2026-04-13 02:33 12.42964 -68.47612 5386 ft 197 kts 175°
2026-04-13 02:33 12.41601 -68.47575 5263 ft 196 kts 175°
2026-04-13 02:33 12.40239 -68.47540 5131 ft 196 kts 175°
2026-04-13 02:34 12.38857 -68.47505 4990 ft 196 kts 175°
2026-04-13 02:34 12.37467 -68.47469 4845 ft 196 kts 175°
2026-04-13 02:34 12.36110 -68.47434 4703 ft 196 kts 175°
2026-04-13 02:34 12.34741 -68.47403 4557 ft 195 kts 175°
2026-04-13 02:35 12.33362 -68.47369 4412 ft 195 kts 175°
2026-04-13 02:35 12.32471 -68.47346 4318 ft 195 kts 175°
2026-04-13 02:35 12.30656 -68.47298 4124 ft 194 kts 174°
2026-04-13 02:35 12.29291 -68.47262 3974 ft 194 kts 174°
2026-04-13 02:36 12.27943 -68.47227 3832 ft 194 kts 174°
2026-04-13 02:36 12.27027 -68.47208 3734 ft 194 kts 174°
2026-04-13 02:36 12.25206 -68.47167 3539 ft 193 kts 174°
2026-04-13 02:36 12.23845 -68.47133 3422 ft 191 kts 174°
2026-04-13 02:37 12.22550 -68.47098 3276 ft 182 kts 173°
2026-04-13 02:37 12.21298 -68.47069 3183 ft 172 kts 173°
2026-04-13 02:37 12.20115 -68.47042 3121 ft 166 kts 173°
2026-04-13 02:37 12.18951 -68.47011 3055 ft 166 kts 172°
2026-04-13 02:38 12.17785 -68.46976 2945 ft 165 kts 172°
2026-04-13 02:38 12.16621 -68.46944 2815 ft 165 kts 172°
2026-04-13 02:38 12.15465 -68.46915 2696 ft 164 kts 172°
2026-04-13 02:38 12.14353 -68.46755 2564 ft 158 kts 150°
2026-04-13 02:39 12.13578 -68.46060 2239 ft 146 kts 108°
2026-04-13 02:39 12.13458 -68.45081 2065 ft 139 kts 86°
2026-04-13 02:39 12.13506 -68.44083 2014 ft 141 kts 88°
2026-04-13 02:39 12.13520 -68.43070 2005 ft 142 kts 90°
2026-04-13 02:40 12.13511 -68.42056 1998 ft 142 kts 90°
2026-04-13 02:40 12.13499 -68.41037 2006 ft 143 kts 90°
2026-04-13 02:40 12.13474 -68.40023 2004 ft 142 kts 91°
2026-04-13 02:40 12.13449 -68.39017 2000 ft 142 kts 90°
2026-04-13 02:41 12.13420 -68.38004 1951 ft 143 kts 91°
2026-04-13 02:41 12.13386 -68.36990 1743 ft 144 kts 91°
2026-04-13 02:41 12.13355 -68.35966 1595 ft 147 kts 91°
2026-04-13 02:41 12.13321 -68.34914 1422 ft 147 kts 92°
2026-04-13 02:42 12.13258 -68.33856 1190 ft 150 kts 93°
2026-04-13 02:42 12.13215 -68.32807 970 ft 146 kts 89°
2026-04-13 02:42 12.13218 -68.31768 655 ft 149 kts 90°
2026-04-13 02:42 12.13197 -68.30730 492 ft 146 kts 91°
2026-04-13 02:43 12.13152 -68.29700 271 ft 146 kts 91°
2026-04-13 02:43 12.13132 -68.28664 126 ft 144 kts 90°
2026-04-13 02:43 12.13113 -68.27657 26 ft 136 kts 90°
2026-04-13 02:43 12.13080 -68.26898 26 ft 54 kts 90°
2026-04-13 02:44 12.13079 -68.26647 29 ft 38 kts 91°
2026-04-13 02:44 12.13071 -68.26381 30 ft 36 kts 94°
2026-04-13 02:44 12.13065 -68.26131 32 ft 33 kts 90°
2026-04-13 02:44 12.13067 -68.25984 33 ft 1 kts 75°
2026-04-13 02:45 12.13076 -68.25972 33 ft 1 kts 49°
2026-04-13 02:45 12.13077 -68.25962 33 ft 2 kts 107°
2026-04-13 02:45 12.13061 -68.25960 33 ft 2 kts 226°
2026-04-13 02:45 12.13056 -68.25988 33 ft 5 kts 276°
2026-04-13 02:46 12.13062 -68.26046 33 ft 12 kts 274°
2026-04-13 02:46 12.13069 -68.26145 32 ft 16 kts 274°
2026-04-13 02:46 12.13072 -68.26228 30 ft 18 kts 271°
2026-04-13 02:47 12.13076 -68.26530 29 ft 23 kts 271°
2026-04-13 02:47 12.13084 -68.26764 28 ft 24 kts 272°
2026-04-13 02:47 12.13095 -68.26947 25 ft 27 kts 274°
2026-04-13 02:47 12.13098 -68.27078 25 ft 28 kts 271°
2026-04-13 02:48 12.13104 -68.27319 24 ft 24 kts 271°
2026-04-13 02:48 12.13102 -68.27467 22 ft 15 kts 271°
2026-04-13 02:48 12.13106 -68.27535 22 ft 9 kts 275°
2026-04-13 02:48 12.13112 -68.27621 22 ft 14 kts 273°
2026-04-13 02:49 12.13116 -68.27713 22 ft 12 kts 272°
2026-04-13 02:49 12.13136 -68.27769 23 ft 6 kts 328°
2026-04-13 02:49 12.13185 -68.27768 22 ft 6 kts
2026-04-13 02:49 12.13221 -68.27744 21 ft 6 kts 43°
2026-04-13 02:50 12.13252 -68.27719 21 ft 0 kts 36°